{"data":{"norad_id":68976,"intl_designator":"2026-099AB","name":"STARLINK-36735","alt_names":[],"object_type":"PAYLOAD","status":"ACTIVE","operator":null,"country":"US","launch_date":"2026-05-01","launch_site_code":"AFETR","launch_vehicle":null,"mission":null,"orbit_class":"UNKNOWN","rcs_meters":null,"size_class":null,"mass_kg":null,"dimensions":null,"purposes":["comms"],"wikipedia_slug":null,"has_3d_model":false,"image_url":null,"decayed_at":null,"tle_current":{"epoch":"2026-05-25T04:00:03.998880Z","epoch_age_seconds":50821,"freshness":"FRESH","line1":"1 68976U 26099AB  26145.16671295 -.02165962  00000+0 -26942-1 0  9993","line2":"2 68976  53.1590 269.9715 0000867  80.3614 260.1957 15.62447794  5018","mean_motion":15.62447794,"eccentricity":8.67e-5,"inclination_deg":53.159,"raan_deg":269.9715,"arg_perigee_deg":80.3614,"mean_anomaly_deg":260.1957,"bstar":-0.026942,"rev_number":501,"period_min":92.163079338061,"perigee_km":380.00287483242,"apogee_km":381.17483789591,"semimajor_km":6758.7258563642,"source":"CELESTRAK","updated_at":"2026-05-25T13:38:22.077843Z"}}}